DAL4187 KPWM-KBNA

Flight info

Callsign DAL4187
Flight time N/A
Altitude 36000
Route HSKEL3 CAM ALB J49 PSB Q71 GEFFS HVQ Q68 YOCKY CUTRR PASLY5
Aircraft B738/M-SDE2E3FGHIRWXY/LB1

Departure

Time 2026-05-05 16:50
Airport Portland International Jetport (KPWM)

Arrival

Time N/A
Airport Nashville International Airport (KBNA)
Time Latitude Longitude Altitude Speed Heading
2026-05-05 16:37 43.64682 -70.31119 65 ft 0 kts
2026-05-05 16:38 43.64679 -70.31119 64 ft 2 kts
2026-05-05 16:38 43.64669 -70.31121 64 ft 2 kts
2026-05-05 16:39 43.64655 -70.31120 64 ft 2 kts 349°
2026-05-05 16:39 43.64640 -70.31115 64 ft 2 kts 337°
2026-05-05 16:39 43.64627 -70.31105 64 ft 2 kts 324°
2026-05-05 16:39 43.64616 -70.31092 64 ft 2 kts 310°
2026-05-05 16:40 43.64611 -70.31082 64 ft 1 kts 303°
2026-05-05 16:40 43.64608 -70.31078 63 ft 0 kts 302°
2026-05-05 16:42 43.64610 -70.31079 63 ft 0 kts 302°
2026-05-05 16:42 43.64610 -70.31094 64 ft 5 kts 272°
2026-05-05 16:42 43.64607 -70.31130 64 ft 3 kts 259°
2026-05-05 16:43 43.64603 -70.31215 66 ft 11 kts 271°
2026-05-05 16:43 43.64608 -70.31307 68 ft 7 kts 274°
2026-05-05 16:43 43.64610 -70.31364 69 ft 4 kts 274°
2026-05-05 16:45 43.64611 -70.31383 69 ft 3 kts 274°
2026-05-05 16:45 43.64616 -70.31452 71 ft 11 kts 276°
2026-05-05 16:46 43.64624 -70.31580 71 ft 12 kts 275°
2026-05-05 16:46 43.64631 -70.31694 71 ft 11 kts 275°
2026-05-05 16:46 43.64639 -70.31795 71 ft 12 kts 278°
2026-05-05 16:46 43.64649 -70.31928 70 ft 14 kts 274°
2026-05-05 16:47 43.64658 -70.32061 68 ft 13 kts 276°
2026-05-05 16:47 43.64666 -70.32181 68 ft 11 kts 277°
2026-05-05 16:47 43.64675 -70.32284 68 ft 10 kts 277°
2026-05-05 16:47 43.64682 -70.32369 69 ft 3 kts 276°
2026-05-05 16:48 43.64683 -70.32379 68 ft 2 kts 276°
2026-05-05 16:48 43.64687 -70.32434 68 ft 7 kts 276°
2026-05-05 16:48 43.64692 -70.32510 68 ft 8 kts 274°
2026-05-05 16:48 43.64653 -70.32576 67 ft 10 kts 201°
2026-05-05 16:49 43.64599 -70.32571 66 ft 6 kts 129°
2026-05-05 16:49 43.64581 -70.32526 66 ft 3 kts 92°
2026-05-05 16:49 43.64581 -70.32521 66 ft 0 kts 95°
2026-05-05 16:49 43.64579 -70.32504 67 ft 10 kts 95°
2026-05-05 16:50 43.64556 -70.32104 69 ft 78 kts 96°
2026-05-05 16:50 43.64481 -70.31054 63 ft 141 kts 98°
2026-05-05 16:50 43.64337 -70.29467 218 ft 178 kts 99°
2026-05-05 16:50 43.64313 -70.27772 928 ft 184 kts 92°
2026-05-05 16:51 43.64495 -70.25943 1520 ft 200 kts 79°
2026-05-05 16:51 43.65156 -70.24129 1921 ft 229 kts 54°
2026-05-05 16:51 43.66282 -70.22491 2469 ft 244 kts 38°
2026-05-05 16:51 43.67825 -70.21403 2962 ft 260 kts 11°
2026-05-05 16:52 43.69647 -70.21146 3559 ft 268 kts 350°
2026-05-05 16:52 43.71488 -70.21564 4167 ft 276 kts 336°
2026-05-05 16:52 43.73125 -70.22818 4961 ft 268 kts 311°
2026-05-05 16:52 43.74295 -70.24737 5873 ft 260 kts 296°
2026-05-05 16:53 43.75069 -70.26930 6756 ft 255 kts 281°
2026-05-05 16:53 43.75462 -70.29264 7708 ft 251 kts 275°
2026-05-05 16:53 43.75755 -70.31628 8532 ft 253 kts 275°
2026-05-05 16:53 43.76062 -70.34005 9418 ft 254 kts 276°
2026-05-05 16:54 43.76400 -70.36379 10241 ft 256 kts 277°
2026-05-05 16:54 43.76649 -70.38841 10859 ft 262 kts 268°
2026-05-05 16:54 43.76518 -70.41338 11631 ft 262 kts 260°
2026-05-05 16:54 43.76213 -70.43829 12334 ft 267 kts 259°
2026-05-05 16:55 43.75896 -70.46330 13088 ft 269 kts 259°
2026-05-05 16:55 43.75599 -70.48904 13764 ft 274 kts 261°
2026-05-05 16:55 43.75325 -70.51517 14432 ft 277 kts 261°
2026-05-05 16:55 43.75057 -70.54160 15114 ft 280 kts 261°
2026-05-05 16:56 43.74786 -70.56824 15750 ft 285 kts 260°
2026-05-05 16:56 43.74506 -70.59544 16414 ft 287 kts 260°
2026-05-05 16:56 43.74224 -70.62254 17021 ft 292 kts 260°
2026-05-05 16:56 43.73932 -70.65049 17639 ft 296 kts 259°
2026-05-05 16:57 43.73638 -70.67862 18252 ft 300 kts 259°
2026-05-05 16:57 43.73340 -70.70720 18855 ft 303 kts 259°
2026-05-05 16:57 43.73036 -70.73618 19495 ft 306 kts 258°
2026-05-05 16:57 43.72731 -70.76522 20043 ft 311 kts 259°
2026-05-05 16:58 43.72376 -70.79481 20630 ft 313 kts 256°
2026-05-05 16:58 43.71832 -70.82360 21210 ft 315 kts 250°
2026-05-05 16:58 43.71084 -70.85201 21795 ft 317 kts 247°
2026-05-05 16:58 43.70251 -70.88046 22298 ft 321 kts 246°
2026-05-05 16:59 43.69402 -70.90888 22831 ft 324 kts 246°
2026-05-05 16:59 43.68545 -70.93774 23357 ft 328 kts 246°
2026-05-05 16:59 43.67683 -70.96716 23897 ft 330 kts 246°
2026-05-05 16:59 43.66827 -70.99661 24402 ft 333 kts 246°
2026-05-05 17:00 43.65972 -71.02618 24938 ft 335 kts 247°
2026-05-05 17:00 43.65158 -71.05644 25380 ft 339 kts 250°
2026-05-05 17:00 43.64500 -71.08805 25879 ft 342 kts 253°
2026-05-05 17:00 43.63941 -71.11961 26399 ft 343 kts 255°
2026-05-05 17:01 43.63399 -71.15168 26832 ft 346 kts 255°
2026-05-05 17:01 43.62849 -71.18406 27301 ft 347 kts 255°
2026-05-05 17:01 43.62283 -71.21673 27764 ft 349 kts 255°
2026-05-05 17:01 43.61709 -71.24931 28117 ft 353 kts 255°
2026-05-05 17:02 43.61126 -71.28193 28653 ft 352 kts 255°
2026-05-05 17:02 43.60539 -71.31456 28939 ft 357 kts 255°
2026-05-05 17:02 43.59945 -71.34750 29399 ft 357 kts 255°
2026-05-05 17:02 43.59335 -71.38115 29722 ft 361 kts 255°
2026-05-05 17:03 43.58727 -71.41448 30077 ft 363 kts 255°
2026-05-05 17:03 43.58107 -71.44836 30498 ft 363 kts 255°
2026-05-05 17:03 43.57492 -71.48196 30820 ft 366 kts 255°
2026-05-05 17:03 43.56872 -71.51585 31235 ft 367 kts 255°
2026-05-05 17:04 43.56242 -71.55019 31533 ft 370 kts 255°
2026-05-05 17:04 43.55612 -71.58445 31933 ft 371 kts 255°
2026-05-05 17:04 43.54977 -71.61889 32216 ft 374 kts 255°
2026-05-05 17:04 43.54337 -71.65365 32619 ft 374 kts 255°
2026-05-05 17:05 43.53699 -71.68819 32884 ft 377 kts 255°
2026-05-05 17:05 43.53052 -71.72309 33331 ft 376 kts 255°
2026-05-05 17:05 43.52409 -71.75774 33617 ft 379 kts 255°
2026-05-05 17:05 43.51754 -71.79305 33980 ft 380 kts 255°
2026-05-05 17:06 43.51099 -71.82835 34122 ft 385 kts 255°
2026-05-05 17:06 43.50441 -71.86369 34591 ft 383 kts 255°
2026-05-05 17:06 43.49772 -71.89942 34757 ft 388 kts 255°
2026-05-05 17:06 43.49097 -71.93532 35044 ft 389 kts 256°
2026-05-05 17:07 43.48418 -71.97138 35312 ft 390 kts 255°
2026-05-05 17:07 43.47738 -72.00748 35548 ft 392 kts 255°
2026-05-05 17:07 43.47054 -72.04366 35784 ft 393 kts 255°
2026-05-05 17:07 43.46359 -72.08031 35796 ft 396 kts 255°
2026-05-05 17:08 43.44970 -72.15349 35804 ft 394 kts 255°
2026-05-05 17:08 43.43602 -72.22548 35802 ft 392 kts 255°
2026-05-05 17:09 43.42225 -72.29763 35794 ft 392 kts 255°
2026-05-05 17:09 43.40836 -72.37028 35795 ft 392 kts 255°
2026-05-05 17:10 43.39411 -72.44212 35793 ft 391 kts 253°
2026-05-05 17:10 43.37342 -72.51135 35793 ft 394 kts 243°
2026-05-05 17:11 43.34544 -72.57603 35789 ft 393 kts 240°
2026-05-05 17:11 43.31629 -72.63934 35800 ft 396 kts 240°
2026-05-05 17:12 43.28708 -72.70315 35799 ft 395 kts 240°
2026-05-05 17:12 43.25803 -72.76727 35808 ft 397 kts 240°
2026-05-05 17:13 43.22897 -72.83133 35796 ft 395 kts 240°
2026-05-05 17:13 43.19996 -72.89500 35806 ft 395 kts 240°
2026-05-05 17:14 43.17075 -72.95908 35803 ft 398 kts 240°
2026-05-05 17:14 43.14159 -73.02308 35807 ft 397 kts 240°
2026-05-05 17:15 43.11252 -73.08661 35808 ft 397 kts 240°
2026-05-05 17:15 43.08321 -73.15045 35804 ft 396 kts 240°
2026-05-05 17:16 43.05395 -73.21420 35803 ft 398 kts 240°
2026-05-05 17:16 43.02457 -73.27801 35796 ft 396 kts 240°
2026-05-05 17:17 42.99538 -73.34123 35685 ft 397 kts 240°
2026-05-05 17:17 42.98009 -73.37270 35955 ft 395 kts 238°
2026-05-05 17:17 42.96407 -73.40328 35727 ft 398 kts 237°
2026-05-05 17:18 42.93098 -73.46375 35787 ft 400 kts 236°
2026-05-05 17:18 42.89791 -73.52421 35794 ft 398 kts 237°
2026-05-05 17:19 42.86519 -73.58463 35787 ft 399 kts 237°
2026-05-05 17:19 42.84864 -73.61531 35924 ft 400 kts 237°
2026-05-05 17:19 42.83234 -73.64549 35629 ft 397 kts 237°
2026-05-05 17:20 42.81604 -73.67561 35947 ft 394 kts 236°
2026-05-05 17:20 42.79976 -73.70577 35749 ft 397 kts 236°
2026-05-05 17:20 42.78330 -73.73627 35901 ft 401 kts 236°
2026-05-05 17:20 42.76695 -73.76650 35778 ft 400 kts 237°
2026-05-05 17:21 42.75055 -73.79684 35604 ft 395 kts 237°
2026-05-05 17:21 42.73504 -73.82763 35751 ft 392 kts 240°
2026-05-05 17:22 42.69264 -73.92391 35875 ft 399 kts 242°
2026-05-05 17:22 42.66501 -73.98775 35779 ft 389 kts 242°
2026-05-05 17:23 42.63720 -74.05115 35787 ft 393 kts 242°
2026-05-05 17:23 42.60914 -74.11451 35646 ft 392 kts 242°
2026-05-05 17:23 42.59497 -74.14632 35774 ft 392 kts 242°
2026-05-05 17:24 42.58087 -74.17791 35796 ft 396 kts 242°
2026-05-05 17:24 42.55225 -74.24199 35805 ft 396 kts 242°
2026-05-05 17:25 42.52394 -74.30524 35816 ft 393 kts 242°
2026-05-05 17:25 42.49554 -74.36855 35825 ft 396 kts 241°
2026-05-05 17:26 42.46709 -74.43179 35820 ft 393 kts 242°
2026-05-05 17:26 42.43864 -74.49495 35829 ft 394 kts 242°
2026-05-05 17:27 42.41010 -74.55812 35836 ft 396 kts 242°
2026-05-05 17:27 42.38148 -74.62129 35833 ft 394 kts 242°
2026-05-05 17:28 42.35286 -74.68440 35834 ft 394 kts 241°
2026-05-05 17:28 42.32426 -74.74747 35836 ft 394 kts 242°
2026-05-05 17:29 42.29566 -74.81025 35846 ft 396 kts 241°
2026-05-05 17:29 42.26682 -74.87336 35859 ft 396 kts 242°
2026-05-05 17:30 42.23809 -74.93617 35859 ft 395 kts 242°
2026-05-05 17:30 42.20905 -74.99950 35868 ft 397 kts 242°
2026-05-05 17:31 42.18008 -75.06254 35859 ft 396 kts 242°
2026-05-05 17:31 42.15114 -75.12530 35856 ft 396 kts 242°
2026-05-05 17:32 42.12193 -75.18869 35860 ft 396 kts 242°
2026-05-05 17:32 42.09304 -75.25124 35867 ft 397 kts 242°
2026-05-05 17:33 42.06383 -75.31435 35864 ft 396 kts 242°
2026-05-05 17:33 42.03639 -75.37798 35860 ft 394 kts 245°
2026-05-05 17:34 42.01016 -75.44305 35852 ft 395 kts 245°
2026-05-05 17:34 41.98402 -75.50757 35853 ft 393 kts 245°
2026-05-05 17:35 41.95760 -75.57207 35850 ft 394 kts 245°
2026-05-05 17:35 41.93111 -75.63631 35841 ft 395 kts 245°
2026-05-05 17:36 41.90442 -75.70071 35841 ft 396 kts 244°
2026-05-05 17:36 41.87750 -75.76554 35829 ft 396 kts 245°
2026-05-05 17:37 41.85085 -75.82976 35827 ft 395 kts 244°
2026-05-05 17:37 41.82422 -75.89368 35836 ft 396 kts 245°
2026-05-05 17:38 41.79743 -75.95791 35830 ft 395 kts 245°
2026-05-05 17:38 41.77055 -76.02206 35826 ft 397 kts 245°
2026-05-05 17:39 41.74352 -76.08619 35843 ft 395 kts 245°
2026-05-05 17:39 41.71680 -76.14927 35837 ft 392 kts 245°
2026-05-05 17:40 41.68977 -76.21354 35842 ft 396 kts 245°
2026-05-05 17:40 41.66319 -76.27699 35847 ft 392 kts 245°
2026-05-05 17:41 41.63631 -76.34045 35840 ft 392 kts 245°
2026-05-05 17:41 41.60939 -76.40368 35848 ft 393 kts 245°
2026-05-05 17:42 41.58264 -76.46642 35854 ft 390 kts 245°
2026-05-05 17:42 41.55576 -76.52954 35847 ft 393 kts 245°
2026-05-05 17:43 41.52882 -76.59252 35846 ft 389 kts 245°
2026-05-05 17:43 41.50203 -76.65490 35850 ft 390 kts 245°
2026-05-05 17:44 41.47528 -76.71744 35852 ft 389 kts 245°
2026-05-05 17:44 41.44880 -76.77924 35845 ft 384 kts 245°
2026-05-05 17:45 41.42222 -76.84103 35840 ft 386 kts 245°
2026-05-05 17:45 41.39560 -76.90299 35841 ft 386 kts 245°
2026-05-05 17:46 41.36897 -76.96463 35838 ft 381 kts 246°
2026-05-05 17:46 41.34249 -77.02563 35844 ft 386 kts 246°
2026-05-05 17:47 41.31562 -77.08754 35835 ft 385 kts 245°
2026-05-05 17:47 41.28872 -77.14906 35836 ft 384 kts 246°
2026-05-05 17:48 41.26208 -77.21026 35838 ft 385 kts 245°
2026-05-05 17:48 41.23513 -77.27183 35844 ft 385 kts 245°
2026-05-05 17:49 41.20845 -77.33266 35847 ft 379 kts 246°
2026-05-05 17:49 41.18183 -77.39355 35863 ft 385 kts 245°
2026-05-05 17:50 41.15525 -77.45430 35868 ft 381 kts 245°
2026-05-05 17:50 41.12836 -77.51522 35869 ft 383 kts 245°
2026-05-05 17:51 41.10142 -77.57593 35874 ft 382 kts 245°
2026-05-05 17:51 41.07443 -77.63664 35869 ft 383 kts 245°
2026-05-05 17:52 41.04760 -77.69733 35872 ft 383 kts 245°
2026-05-05 17:52 41.02079 -77.75787 35870 ft 382 kts 244°
2026-05-05 17:53 40.99415 -77.81799 35865 ft 380 kts 245°
2026-05-05 17:53 40.96699 -77.87881 35867 ft 382 kts 245°
2026-05-05 17:54 40.94002 -77.93908 35868 ft 382 kts 245°